This is the latest recevied weather packets stored in our database for station/object KB1JL-13. If no packets are shown the sender has not sent any weather packets the latest 10 day(s).
| Time | Temp. | Humidity | Pressure | Rain* | Wind** | Luminosity | Snow |
|---|---|---|---|---|---|---|---|
| 1777413104 | 16.11° C | 54% | 1029.8 hPa | 0 mm | - | 77 W/m² | - |
| 1777412798 | 16.11° C | 52% | 1029.8 hPa | 0 mm | - | 85 W/m² | - |
| 1777412493 | 16.67° C | 52% | 1029.8 hPa | 0 mm | - | 98 W/m² | - |
| 1777412191 | 16.67° C | 52% | 1030.1 hPa | 0 mm | - | 104 W/m² | - |
| 1777411887 | 16.67° C | 52% | 1029.8 hPa | 0 mm | - | 109 W/m² | - |
| 1777411586 | 16.67° C | 50% | 1030.1 hPa | 0 mm | - | 119 W/m² | - |
| 1777411281 | 16.67° C | 49% | 1029.8 hPa | 0 mm | - | 130 W/m² | - |
| 1777410975 | 16.67° C | 49% | 1030.1 hPa | 0 mm | - | 136 W/m² | - |
| 1777410675 | 17.22° C | 50% | 1029.8 hPa | 0 mm | - | 138 W/m² | - |
| 1777410370 | 17.22° C | 51% | 1029.8 hPa | 0 mm | - | 147 W/m² | - |
| 1777410069 | 17.22° C | 49% | 1030.1 hPa | 0 mm | - | 159 W/m² | - |
| 1777409764 | 17.22° C | 49% | 1030.1 hPa | 0 mm | - | 163 W/m² | - |
| 1777409459 | 17.22° C | 49% | 1029.8 hPa | 0 mm | - | 166 W/m² | - |
| 1777409155 | 17.78° C | 51% | 1029.8 hPa | 0 mm | - | 175 W/m² | - |
| 1777408852 | 18.33° C | 48% | 1030.1 hPa | 0 mm | - | 202 W/m² | - |
| 1777408547 | 18.33° C | 49% | 1030.1 hPa | 0 mm | - | 265 W/m² | - |
| 1777408242 | 17.78° C | 50% | 1030.1 hPa | 0 mm | - | 320 W/m² | - |
| 1777407938 | 17.78° C | 48% | 1030.5 hPa | 0 mm | - | 243 W/m² | - |
| 1777407636 | 17.78° C | 47% | 1030.5 hPa | 0 mm | - | 259 W/m² | - |
| 1777407335 | 17.78° C | 50% | 1030.5 hPa | 0 mm | - | 258 W/m² | - |
| 1777407030 | 18.33° C | 46% | 1030.5 hPa | 0 mm | - | 295 W/m² | - |
| 1777406725 | 18.33° C | 47% | 1030.5 hPa | 0 mm | - | 267 W/m² | - |
| 1777406421 | 18.33° C | 47% | 1030.5 hPa | 0 mm | - | 388 W/m² | - |
| 1777406120 | 18.33° C | 46% | 1030.8 hPa | 0 mm | - | 302 W/m² | - |
| 1777405816 | 18.89° C | 46% | 1030.8 hPa | 0 mm | - | 382 W/m² | - |
* Rain latest hour (hover to see other rain measurements)
** Current wind speed in m/s (hover to see current wind gust speed)